| time (UTC) | temp F | wind direction | speed knots | gust knots | rain 1hr in | rain 24hr in | rain mn in | humidity % | barometer mb |
| 20260505171554 | 66 | 31 | 2.6 | 6.1 | 0.00 | 0.00 | 0.00 | 32 | 1008.5 |
| 20260505170035 | 66 | 232 | 0.9 | 6.1 | 0.00 | 0.00 | 0.00 | 34 | 1008.6 |
| 20260505164536 | 66 | 0 | 0.0 | 4.3 | 0.00 | 0.00 | 0.00 | 38 | 1008.5 |
| 20260505163036 | 65 | 70 | 1.7 | 7.8 | 0.00 | 0.00 | 0.00 | 41 | 1008.5 |
| 20260505161538 | 64 | 145 | 0.9 | 4.3 | 0.00 | 0.00 | 0.00 | 44 | 1008.5 |
| 20260505153035 | 57 | 120 | 0.9 | 2.6 | 0.00 | 0.00 | 0.00 | 62 | 1008.2 |
| 20260505151536 | 55 | 125 | 0.9 | 2.6 | 0.00 | 0.00 | 0.00 | 65 | 1008.2 |
| 20260505124546 | 42 | 0 | 0.0 | 1.7 | 0.00 | 0.00 | 0.00 | 85 | 1007.1 |
| 20260505123039 | 42 | 0 | 0.0 | 0.9 | 0.00 | 0.00 | 0.00 | 85 | 1007.0 |
| 20260505121536 | 42 | 0 | 0.0 | 1.7 | 0.00 | 0.00 | 0.00 | 83 | 1006.8 |
| 20260505120038 | 46 | 0 | 0.0 | 0.9 | 0.00 | 0.00 | 0.00 | 76 | 1006.7 |
| 20260505114535 | 46 | 55 | 0.0 | 0.0 | 0.00 | 0.00 | 0.00 | 77 | 1006.6 |
| 20260505113035 | 46 | 0 | 0.0 | 0.9 | 0.00 | 0.00 | 0.00 | 78 | 1006.6 |
| 20260505111538 | 44 | 0 | 0.0 | 0.0 | 0.00 | 0.00 | 0.00 | 80 | 1006.4 |
| 20260505101536 | 45 | 0 | 0.0 | 1.7 | 0.00 | 0.00 | 0.00 | 75 | 1006.1 |
| 20260505100038 | 48 | 0 | 0.9 | 3.5 | 0.00 | 0.00 | 0.00 | 72 | 1005.9 |
| 20260505094541 | 46 | 0 | 0.0 | 0.9 | 0.00 | 0.00 | 0.00 | 73 | 1006.1 |
| 20260505093039 | 46 | 0 | 0.0 | 0.0 | 0.00 | 0.00 | 0.00 | 71 | 1006.1 |
| 20260505091543 | 47 | 25 | 0.0 | 0.9 | 0.00 | 0.00 | 0.00 | 70 | 1005.8 |
| 20260505090034 | 47 | 40 | 0.9 | 1.7 | 0.00 | 0.00 | 0.00 | 69 | 1006.0 |
| 20260505084538 | 46 | 0 | 0.0 | 1.7 | 0.00 | 0.00 | 0.00 | 72 | 1005.8 |
| 20260505083040 | 47 | 76 | 0.0 | 1.7 | 0.00 | 0.00 | 0.00 | 69 | 1005.9 |
| 20260505081539 | 51 | 0 | 0.0 | 1.7 | 0.00 | 0.00 | 0.00 | 61 | 1005.8 |
| 20260505080035 | 49 | 1 | 0.0 | 1.7 | 0.00 | 0.00 | 0.00 | 66 | 1005.9 |
| 20260505074537 | 52 | 72 | 0.9 | 3.5 | 0.00 | 0.00 | 0.00 | 58 | 1005.9 |
| 20260505073035 | 55 | 15 | 0.0 | 0.9 | 0.00 | 0.00 | 0.00 | 53 | 1005.8 |
| 20260505071550 | 56 | 15 | 0.0 | 1.7 | 0.00 | 0.00 | 0.00 | 51 | 1005.7 |
| 20260505070046 | 56 | 15 | 0.0 | 0.9 | 0.00 | 0.00 | 0.00 | 51 | 1005.7 |
| 20260505064535 | 56 | 0 | 0.0 | 0.9 | 0.00 | 0.00 | 0.00 | 50 | 1005.6 |
| 20260505063047 | 55 | 357 | 0.0 | 1.7 | 0.00 | 0.00 | 0.00 | 51 | 1005.6 |
| 20260505061603 | 55 | 0 | 0.0 | 1.7 | 0.00 | 0.00 | 0.00 | 52 | 1005.6 |
| 20260505060033 | 56 | 69 | 0.9 | 6.1 | 0.00 | 0.00 | 0.00 | 50 | 1005.5 |
| 20260505054541 | 56 | 21 | 0.9 | 1.7 | 0.00 | 0.00 | 0.00 | 49 | 1005.4 |
| 20260505053041 | 56 | 11 | 0.9 | 1.7 | 0.00 | 0.00 | 0.00 | 50 | 1005.5 |
| 20260505051556 | 56 | 0 | 0.0 | 1.7 | 0.00 | 0.00 | 0.00 | 48 | 1005.4 |
| 20260505041537 | 61 | 0 | 0.0 | 6.1 | 0.00 | 0.00 | 0.00 | 39 | 1005.1 |
| 20260505040039 | 62 | 218 | 0.0 | 6.1 | 0.00 | 0.00 | 0.00 | 38 | 1004.9 |
| 20260505034536 | 63 | 1 | 1.7 | 7.8 | 0.00 | 0.00 | 0.00 | 37 | 1004.7 |
| 20260505033037 | 63 | 30 | 2.6 | 10.4 | 0.00 | 0.00 | 0.00 | 37 | 1004.5 |
| 20260505031530 | 63 | 316 | 0.9 | 7.0 | 0.00 | 0.00 | 0.00 | 37 | 1004.3 |
| 20260505030037 | 64 | 345 | 2.6 | 7.0 | 0.00 | 0.00 | 0.00 | 35 | 1004.2 |
| 20260505024541 | 65 | 23 | 1.7 | 8.7 | 0.00 | 0.00 | 0.00 | 34 | 1003.9 |
| 20260505023035 | 66 | 58 | 2.6 | 6.1 | 0.00 | 0.00 | 0.00 | 33 | 1003.7 |
| 20260505021537 | 66 | 27 | 2.6 | 7.0 | 0.00 | 0.00 | 0.00 | 32 | 1003.7 |
| 20260505020037 | 67 | 26 | 1.7 | 7.0 | 0.00 | 0.00 | 0.00 | 31 | 1003.7 |
| 20260505014537 | 68 | 37 | 2.6 | 7.0 | 0.00 | 0.00 | 0.00 | 28 | 1003.8 |
| 20260505013036 | 69 | 345 | 3.5 | 7.8 | 0.00 | 0.00 | 0.00 | 27 | 1003.8 |
| 20260505011534 | 69 | 45 | 0.9 | 7.0 | 0.00 | 0.00 | 0.00 | 26 | 1003.9 |
| 20260505010038 | 71 | 25 | 1.7 | 5.2 | 0.00 | 0.00 | 0.00 | 25 | 1003.8 |
| 20260505004536 | 72 | 205 | 3.5 | 9.6 | 0.00 | 0.00 | 0.00 | 26 | 1003.8 |
| 20260505003035 | 73 | 75 | 1.7 | 10.4 | 0.00 | 0.00 | 0.00 | 25 | 1003.7 |
| 20260505001535 | 74 | 67 | 2.6 | 6.1 | 0.00 | 0.00 | 0.00 | 24 | 1003.7 |
| 20260505000043 | 74 | 22 | 1.7 | 7.8 | 0.00 | 0.00 | 0.00 | 23 | 1003.6 |
| 20260504234535 | 74 | 1 | 1.7 | 9.6 | 0.00 | 0.00 | 0.00 | 25 | 1003.7 |
| 20260504233042 | 74 | 276 | 2.6 | 7.8 | 0.00 | 0.00 | 0.00 | 28 | 1003.9 |
| 20260504231542 | 75 | 188 | 2.6 | 7.8 | 0.00 | 0.00 | 0.00 | 26 | 1004.2 |
| 20260504230046 | 75 | 86 | 2.6 | 7.0 | 0.00 | 0.00 | 0.00 | 23 | 1004.2 |
| 20260504224534 | 74 | 161 | 2.6 | 11.3 | 0.00 | 0.00 | 0.00 | 27 | 1004.1 |
| 20260504223038 | 75 | 352 | 2.6 | 9.6 | 0.00 | 0.00 | 0.00 | 24 | 1004.3 |
| 20260504221535 | 75 | 108 | 2.6 | 9.6 | 0.00 | 0.00 | 0.00 | 24 | 1004.4 |
| 20260504220038 | 75 | 36 | 3.5 | 7.8 | 0.00 | 0.00 | 0.00 | 23 | 1004.5 |
| 20260504214535 | 75 | 64 | 0.9 | 6.1 | 0.00 | 0.00 | 0.00 | 25 | 1004.6 |
| 20260504213035 | 75 | 290 | 0.9 | 5.2 | 0.00 | 0.00 | 0.00 | 27 | 1004.7 |
| 20260504211537 | 75 | 142 | 2.6 | 7.8 | 0.00 | 0.00 | 0.00 | 25 | 1004.9 |
| 20260504210044 | 75 | 37 | 3.5 | 11.3 | 0.00 | 0.00 | 0.00 | 26 | 1005.0 |
| 20260504204538 | 74 | 55 | 1.7 | 9.6 | 0.00 | 0.00 | 0.00 | 28 | 1004.9 |
| 20260504203050 | 75 | 160 | 1.7 | 8.7 | 0.00 | 0.00 | 0.00 | 25 | 1004.9 |
| 20260504201535 | 74 | 114 | 1.7 | 7.8 | 0.00 | 0.00 | 0.00 | 25 | 1005.2 |
| 20260504200035 | 74 | 52 | 1.7 | 10.4 | 0.00 | 0.00 | 0.00 | 24 | 1005.2 |
| 20260504194537 | 74 | 71 | 0.9 | 7.0 | 0.00 | 0.00 | 0.00 | 27 | 1005.3 |
| 20260504193035 | 73 | 155 | 2.6 | 7.0 | 0.00 | 0.00 | 0.00 | 26 | 1005.4 |
| 20260504191536 | 72 | 117 | 1.7 | 9.6 | 0.00 | 0.00 | 0.00 | 29 | 1005.5 |
| 20260504190047 | 72 | 12 | 4.3 | 9.6 | 0.00 | 0.00 | 0.00 | 29 | 1005.5 |
| 20260504184535 | 72 | 304 | 1.7 | 9.6 | 0.00 | 0.00 | 0.00 | 30 | 1005.9 |
| 20260504183037 | 72 | 335 | 2.6 | 7.8 | 0.00 | 0.00 | 0.00 | 29 | 1005.9 |
| 20260504181541 | 71 | 21 | 2.6 | 5.2 | 0.00 | 0.00 | 0.00 | 30 | 1006.1 |
| 20260504180036 | 71 | 92 | 1.7 | 9.6 | 0.00 | 0.00 | 0.00 | 30 | 1006.2 |
| 20260504174536 | 70 | 39 | 2.6 | 7.8 | 0.00 | 0.00 | 0.00 | 30 | 1006.3 |
| 20260504173037 | 65 | 245 | 1.7 | 3.5 | 0.00 | 0.00 | 0.00 | 44 | 1006.5 |